| time (UTC) | temp F | wind direction | speed MPH | gust MPH | rain 1hr in | rain 24hr in | rain mn in | humidity % | barometer mb |
| 20260905224601 | 95 | 89 | 0.0 | 5.0 | 0.00 | 0.00 | 0.00 | 46 | 1010.7 |
| 20260905223146 | 96 | 113 | 0.0 | 3.0 | 0.00 | 0.00 | 0.00 | 45 | 1010.6 |
| 20260905223026 | 96 | 49 | 0.0 | 3.0 | 0.00 | 0.00 | 0.00 | 44 | 1010.9 |
| 20260905221521 | 96 | 96 | 0.0 | 5.0 | 0.00 | 0.00 | 0.00 | 45 | 1010.9 |
| 20260905221510 | 95 | 67 | 0.0 | 5.0 | 0.00 | 0.00 | 0.00 | 45 | 1010.7 |
| 20260905220017 | 96 | 57 | 2.0 | 4.0 | 0.00 | 0.00 | 0.00 | 46 | 1011.1 |
| 20260905220007 | 95 | 13 | 1.0 | 4.0 | 0.00 | 0.00 | 0.00 | 47 | 1010.9 |
| 20260905214527 | 97 | 124 | 1.0 | 5.0 | 0.00 | 0.00 | 0.00 | 43 | 1011.3 |
| 20260905214505 | 96 | 93 | 1.0 | 5.0 | 0.00 | 0.00 | 0.00 | 43 | 1011.0 |
| 20260905213029 | 97 | 352 | 0.0 | 7.0 | 0.00 | 0.00 | 0.00 | 43 | 1011.3 |
| 20260905213004 | 97 | 323 | 0.0 | 7.0 | 0.00 | 0.00 | 0.00 | 43 | 1011.0 |
| 20260905211540 | 97 | 95 | 2.0 | 5.0 | 0.00 | 0.00 | 0.00 | 43 | 1011.5 |
| 20260905211503 | 97 | 65 | 1.0 | 5.0 | 0.00 | 0.00 | 0.00 | 43 | 1011.2 |
| 20260905210005 | 97 | 73 | 1.0 | 7.0 | 0.00 | 0.00 | 0.00 | 43 | 1011.6 |
| 20260905210001 | 96 | 43 | 1.0 | 7.0 | 0.00 | 0.00 | 0.00 | 43 | 1011.4 |
| 20260905204606 | 95 | 250 | 1.0 | 4.0 | 0.00 | 0.00 | 0.00 | 44 | 1011.5 |
| 20260905204524 | 96 | 134 | 0.0 | 3.0 | 0.00 | 0.00 | 0.00 | 44 | 1011.7 |
| 20260905204504 | 95 | 104 | 0.0 | 3.0 | 0.00 | 0.00 | 0.00 | 45 | 1011.7 |
| 20260905203116 | 94 | 89 | 3.0 | 8.0 | 0.00 | 0.00 | 0.00 | 47 | 1011.9 |
| 20260905203018 | 95 | 100 | 2.0 | 4.0 | 0.00 | 0.00 | 0.00 | 48 | 1012.1 |
| 20260905201600 | 95 | 49 | 1.0 | 6.0 | 0.00 | 0.00 | 0.00 | 46 | 1012.1 |
| 20260905201513 | 95 | 74 | 1.0 | 6.0 | 0.00 | 0.00 | 0.00 | 46 | 1012.2 |
| 20260905200100 | 97 | 103 | 1.0 | 7.0 | 0.00 | 0.00 | 0.00 | 43 | 1012.2 |
| 20260905200022 | 97 | 101 | 1.0 | 7.0 | 0.00 | 0.00 | 0.00 | 43 | 1012.4 |
| 20260905194554 | 98 | 119 | 2.0 | 5.0 | 0.00 | 0.00 | 0.00 | 41 | 1012.3 |
| 20260905194506 | 99 | 135 | 1.0 | 4.0 | 0.00 | 0.00 | 0.00 | 40 | 1012.4 |
| 20260905193052 | 97 | 53 | 0.0 | 5.0 | 0.00 | 0.00 | 0.00 | 45 | 1012.4 |
| 20260905193005 | 98 | 83 | 0.0 | 5.0 | 0.00 | 0.00 | 0.00 | 42 | 1012.7 |
| 20260905191549 | 97 | 103 | 0.0 | 2.0 | 0.00 | 0.00 | 0.00 | 43 | 1012.6 |
| 20260905191527 | 98 | 146 | 0.0 | 1.0 | 0.00 | 0.00 | 0.00 | 44 | 1013.0 |
| 20260905190048 | 98 | 69 | 0.0 | 0.0 | 0.00 | 0.00 | 0.00 | 44 | 1012.9 |
| 20260905190020 | 98 | 99 | 0.0 | 0.0 | 0.00 | 0.00 | 0.00 | 42 | 1013.4 |
| 20260905184545 | 97 | 68 | 0.0 | 1.0 | 0.00 | 0.00 | 0.00 | 43 | 1013.2 |
| 20260905184527 | 98 | 98 | 0.0 | 2.0 | 0.00 | 0.00 | 0.00 | 43 | 1013.6 |
| 20260905183042 | 97 | 59 | 0.0 | 2.0 | 0.00 | 0.00 | 0.00 | 42 | 1013.2 |
| 20260905183011 | 97 | 89 | 0.0 | 2.0 | 0.00 | 0.00 | 0.00 | 42 | 1013.7 |
| 20260905181557 | 96 | 185 | 1.0 | 4.0 | 0.00 | 0.00 | 0.00 | 41 | 1013.3 |
| 20260905181508 | 96 | 133 | 0.0 | 3.0 | 0.00 | 0.00 | 0.00 | 43 | 1013.8 |
| 20260905180035 | 94 | 53 | 0.0 | 1.0 | 0.00 | 0.00 | 0.00 | 48 | 1013.5 |
| 20260905180006 | 94 | 82 | 0.0 | 1.0 | 0.00 | 0.00 | 0.00 | 48 | 1013.9 |
| 20260905174541 | 92 | 44 | 0.0 | 1.0 | 0.00 | 0.00 | 0.00 | 49 | 1013.7 |
| 20260905174527 | 93 | 74 | 0.0 | 1.0 | 0.00 | 0.00 | 0.00 | 49 | 1014.1 |
| 20260905173034 | 92 | 79 | 1.0 | 5.0 | 0.00 | 0.00 | 0.00 | 48 | 1013.8 |
| 20260905173024 | 93 | 123 | 1.0 | 5.0 | 0.00 | 0.00 | 0.00 | 49 | 1014.2 |
| 20260905171540 | 93 | 68 | 1.0 | 3.0 | 0.00 | 0.00 | 0.00 | 51 | 1013.9 |
| 20260905171521 | 93 | 98 | 1.0 | 3.0 | 0.00 | 0.00 | 0.00 | 50 | 1014.4 |
| 20260905170029 | 93 | 90 | 0.0 | 1.0 | 0.00 | 0.00 | 0.00 | 50 | 1014.1 |
| 20260905170013 | 93 | 121 | 0.0 | 1.0 | 0.00 | 0.00 | 0.00 | 49 | 1014.5 |
| 20260905164533 | 92 | 360 | 0.0 | 2.0 | 0.00 | 0.00 | 0.00 | 51 | 1014.3 |
| 20260905164514 | 92 | 29 | 1.0 | 2.0 | 0.00 | 0.00 | 0.00 | 51 | 1014.7 |
| 20260905163023 | 91 | 77 | 0.0 | 4.0 | 0.00 | 0.00 | 0.00 | 53 | 1014.5 |
| 20260905163010 | 92 | 126 | 0.0 | 5.0 | 0.00 | 0.00 | 0.00 | 52 | 1014.9 |
| 20260905161532 | 91 | 187 | 0.0 | 2.0 | 0.00 | 0.00 | 0.00 | 55 | 1015.0 |
| 20260905161519 | 90 | 149 | 0.0 | 2.0 | 0.00 | 0.00 | 0.00 | 56 | 1014.5 |
| 20260905160027 | 90 | 56 | 0.0 | 5.0 | 0.00 | 0.00 | 0.00 | 58 | 1015.0 |
| 20260905160021 | 90 | 318 | 0.0 | 5.0 | 0.00 | 0.00 | 0.00 | 59 | 1014.5 |
| 20260905154524 | 88 | 76 | 0.0 | 1.0 | 0.00 | 0.00 | 0.00 | 63 | 1015.0 |
| 20260905154512 | 88 | 46 | 0.0 | 1.0 | 0.00 | 0.00 | 0.00 | 63 | 1014.7 |
| 20260905153020 | 87 | 66 | 2.0 | 5.0 | 0.00 | 0.00 | 0.00 | 63 | 1014.9 |
| 20260905153018 | 87 | 37 | 1.0 | 5.0 | 0.00 | 0.00 | 0.00 | 63 | 1014.6 |
| 20260905151609 | 86 | 46 | 0.0 | 2.0 | 0.00 | 0.00 | 0.00 | 66 | 1014.7 |
| 20260905151520 | 86 | 88 | 0.0 | 2.0 | 0.00 | 0.00 | 0.00 | 65 | 1014.9 |
| 20260905150037 | 85 | 21 | 1.0 | 4.0 | 0.00 | 0.00 | 0.00 | 69 | 1014.7 |
| 20260905150008 | 85 | 66 | 0.0 | 3.0 | 0.00 | 0.00 | 0.00 | 68 | 1015.0 |
| 20260905144533 | 83 | 34 | 0.0 | 2.0 | 0.00 | 0.00 | 0.00 | 73 | 1014.8 |
| 20260905144521 | 83 | 63 | 0.0 | 2.0 | 0.00 | 0.00 | 0.00 | 74 | 1015.0 |
| 20260905143029 | 81 | 33 | 0.0 | 0.0 | 0.00 | 0.00 | 0.00 | 76 | 1014.6 |
| 20260905143007 | 82 | 64 | 0.0 | 0.0 | 0.00 | 0.00 | 0.00 | 76 | 1014.9 |
| 20260905141527 | 80 | 33 | 0.0 | 0.0 | 0.00 | 0.00 | 0.00 | 77 | 1014.6 |
| 20260905140027 | 79 | 33 | 0.0 | 0.0 | 0.00 | 0.00 | 0.00 | 79 | 1014.6 |
| 20260905140024 | 80 | 63 | 0.0 | 0.0 | 0.00 | 0.00 | 0.00 | 78 | 1014.9 |
| 20260905134525 | 78 | 33 | 0.0 | 1.0 | 0.00 | 0.00 | 0.00 | 81 | 1014.6 |
| 20260905134519 | 79 | 64 | 0.0 | 1.0 | 0.00 | 0.00 | 0.00 | 80 | 1014.9 |
| 20260905133024 | 77 | 34 | 0.0 | 1.0 | 0.00 | 0.00 | 0.00 | 82 | 1014.6 |
| 20260905133017 | 78 | 63 | 0.0 | 1.0 | 0.00 | 0.00 | 0.00 | 82 | 1014.8 |
| 20260905131524 | 76 | 31 | 0.0 | 1.0 | 0.00 | 0.00 | 0.00 | 85 | 1014.6 |
| 20260905131508 | 77 | 60 | 0.0 | 1.0 | 0.00 | 0.00 | 0.00 | 84 | 1014.7 |
| 20260905130023 | 76 | 31 | 0.0 | 1.0 | 0.00 | 0.00 | 0.00 | 87 | 1014.6 |
| 20260905130007 | 76 | 60 | 0.0 | 1.0 | 0.00 | 0.00 | 0.00 | 86 | 1014.8 |
| 20260905124531 | 75 | 31 | 0.0 | 0.0 | 0.00 | 0.00 | 0.00 | 88 | 1014.6 |
| 20260905124527 | 75 | 61 | 0.0 | 0.0 | 0.00 | 0.00 | 0.00 | 87 | 1014.7 |
| 20260905123024 | 75 | 60 | 0.0 | 0.0 | 0.00 | 0.00 | 0.00 | 89 | 1014.7 |
| 20260905123021 | 74 | 30 | 0.0 | 0.0 | 0.00 | 0.00 | 0.00 | 90 | 1014.5 |
| 20260905121521 | 74 | 31 | 0.0 | 0.0 | 0.00 | 0.00 | 0.00 | 89 | 1014.6 |
| 20260905121518 | 75 | 61 | 0.0 | 0.0 | 0.00 | 0.00 | 0.00 | 89 | 1014.7 |
| 20260905120019 | 75 | 30 | 0.0 | 0.0 | 0.00 | 0.00 | 0.00 | 89 | 1014.4 |
| 20260905120016 | 75 | 61 | 0.0 | 0.0 | 0.00 | 0.00 | 0.00 | 89 | 1014.5 |
| 20260905114518 | 74 | 30 | 0.0 | 0.0 | 0.00 | 0.00 | 0.00 | 90 | 1014.2 |
| 20260905114513 | 75 | 61 | 0.0 | 0.0 | 0.00 | 0.00 | 0.00 | 89 | 1014.4 |
| 20260905113029 | 75 | 61 | 0.0 | 0.0 | 0.00 | 0.00 | 0.00 | 89 | 1014.3 |
| 20260905113014 | 75 | 31 | 0.0 | 0.0 | 0.00 | 0.00 | 0.00 | 90 | 1014.2 |
| 20260905111529 | 75 | 61 | 0.0 | 0.0 | 0.00 | 0.00 | 0.00 | 89 | 1014.2 |
| 20260905111513 | 75 | 30 | 0.0 | 0.0 | 0.00 | 0.00 | 0.00 | 89 | 1014.0 |
| 20260905110026 | 75 | 60 | 0.0 | 0.0 | 0.00 | 0.00 | 0.00 | 87 | 1014.2 |
| 20260905110012 | 75 | 31 | 0.0 | 0.0 | 0.00 | 0.00 | 0.00 | 88 | 1014.0 |
| 20260905104524 | 76 | 61 | 0.0 | 0.0 | 0.00 | 0.00 | 0.00 | 87 | 1014.2 |
| 20260905103049 | 75 | 30 | 0.0 | 1.0 | 0.00 | 0.00 | 0.00 | 88 | 1014.0 |
| 20260905103017 | 76 | 61 | 0.0 | 1.0 | 0.00 | 0.00 | 0.00 | 88 | 1014.2 |
| 20260905101515 | 75 | 61 | 0.0 | 0.0 | 0.00 | 0.00 | 0.00 | 87 | 1014.2 |
| 20260905101510 | 75 | 31 | 0.0 | 0.0 | 0.00 | 0.00 | 0.00 | 87 | 1013.9 |
| 20260905100107 | 76 | 61 | 0.0 | 1.0 | 0.00 | 0.00 | 0.00 | 88 | 1014.2 |
| 20260905100009 | 75 | 30 | 0.0 | 1.0 | 0.00 | 0.00 | 0.00 | 88 | 1013.9 |
| 20260905094544 | 76 | 101 | 0.0 | 0.0 | 0.00 | 0.00 | 0.00 | 83 | 1014.2 |
| 20260905094509 | 76 | 71 | 0.0 | 0.0 | 0.00 | 0.00 | 0.00 | 84 | 1013.9 |
| 20260905093030 | 76 | 101 | 0.0 | 0.0 | 0.00 | 0.00 | 0.00 | 81 | 1014.2 |
| 20260905093005 | 76 | 71 | 0.0 | 0.0 | 0.00 | 0.00 | 0.00 | 82 | 1013.9 |
| 20260905091524 | 76 | 101 | 0.0 | 0.0 | 0.00 | 0.00 | 0.00 | 80 | 1014.2 |
| 20260905091502 | 76 | 71 | 0.0 | 0.0 | 0.00 | 0.00 | 0.00 | 81 | 1013.8 |
| 20260905090120 | 76 | 71 | 0.0 | 0.0 | 0.00 | 0.00 | 0.00 | 80 | 1013.7 |
| 20260905090023 | 77 | 101 | 0.0 | 0.0 | 0.00 | 0.00 | 0.00 | 79 | 1014.1 |
| 20260905084607 | 77 | 72 | 0.0 | 0.0 | 0.00 | 0.00 | 0.00 | 79 | 1013.6 |
| 20260905084516 | 77 | 101 | 0.0 | 0.0 | 0.00 | 0.00 | 0.00 | 79 | 1013.9 |
| 20260905083055 | 77 | 71 | 0.0 | 0.0 | 0.00 | 0.00 | 0.00 | 79 | 1013.5 |
| 20260905083034 | 78 | 101 | 0.0 | 0.0 | 0.00 | 0.00 | 0.00 | 78 | 1013.8 |
| 20260905081553 | 78 | 71 | 0.0 | 0.0 | 0.00 | 0.00 | 0.00 | 79 | 1013.5 |
| 20260905081528 | 78 | 101 | 0.0 | 0.0 | 0.00 | 0.00 | 0.00 | 79 | 1013.8 |
| 20260905080055 | 78 | 71 | 0.0 | 1.0 | 0.00 | 0.00 | 0.00 | 79 | 1013.4 |
| 20260905080030 | 79 | 101 | 0.0 | 2.0 | 0.00 | 0.00 | 0.00 | 79 | 1013.7 |
| 20260905074550 | 78 | 71 | 0.0 | 1.0 | 0.00 | 0.00 | 0.00 | 79 | 1013.3 |
| 20260905074530 | 79 | 102 | 0.0 | 1.0 | 0.00 | 0.00 | 0.00 | 77 | 1013.7 |
| 20260905073055 | 78 | 71 | 0.0 | 0.0 | 0.00 | 0.00 | 0.00 | 81 | 1013.2 |
| 20260905073023 | 79 | 102 | 0.0 | 0.0 | 0.00 | 0.00 | 0.00 | 79 | 1013.7 |
| 20260905071550 | 78 | 72 | 0.0 | 0.0 | 0.00 | 0.00 | 0.00 | 78 | 1013.3 |
| 20260905071519 | 79 | 102 | 0.0 | 0.0 | 0.00 | 0.00 | 0.00 | 78 | 1013.7 |
| 20260905070047 | 79 | 72 | 0.0 | 0.0 | 0.00 | 0.00 | 0.00 | 77 | 1013.4 |
| 20260905070036 | 79 | 102 | 0.0 | 0.0 | 0.00 | 0.00 | 0.00 | 77 | 1013.7 |
| 20260905064544 | 79 | 72 | 0.0 | 0.0 | 0.00 | 0.00 | 0.00 | 75 | 1013.4 |
| 20260905064530 | 80 | 102 | 0.0 | 0.0 | 0.00 | 0.00 | 0.00 | 75 | 1013.8 |
| 20260905063044 | 80 | 71 | 0.0 | 0.0 | 0.00 | 0.00 | 0.00 | 74 | 1013.5 |
| 20260905063028 | 80 | 101 | 0.0 | 0.0 | 0.00 | 0.00 | 0.00 | 74 | 1013.9 |
| 20260905061609 | 80 | 72 | 0.0 | 0.0 | 0.00 | 0.00 | 0.00 | 77 | 1013.4 |
| 20260905061529 | 81 | 101 | 0.0 | 0.0 | 0.00 | 0.00 | 0.00 | 77 | 1013.8 |
| 20260905060042 | 81 | 71 | 0.0 | 0.0 | 0.00 | 0.00 | 0.00 | 76 | 1013.4 |
| 20260905060004 | 81 | 101 | 0.0 | 0.0 | 0.00 | 0.00 | 0.00 | 75 | 1013.9 |
| 20260905054540 | 80 | 71 | 0.0 | 0.0 | 0.00 | 0.00 | 0.00 | 76 | 1013.5 |
| 20260905054507 | 80 | 102 | 0.0 | 0.0 | 0.00 | 0.00 | 0.00 | 75 | 1014.0 |
| 20260905053038 | 79 | 72 | 0.0 | 0.0 | 0.00 | 0.00 | 0.00 | 78 | 1013.6 |
| 20260905053004 | 80 | 101 | 0.0 | 0.0 | 0.00 | 0.00 | 0.00 | 78 | 1014.0 |
| 20260905051539 | 79 | 72 | 0.0 | 0.0 | 0.00 | 0.00 | 0.00 | 78 | 1013.6 |
| 20260905051516 | 80 | 101 | 0.0 | 0.0 | 0.00 | 0.00 | 0.00 | 77 | 1014.1 |
| 20260905050036 | 80 | 72 | 0.0 | 0.0 | 0.00 | 0.00 | 0.00 | 75 | 1013.6 |
| 20260905050013 | 80 | 102 | 0.0 | 0.0 | 0.00 | 0.00 | 0.00 | 75 | 1014.0 |
| 20260905044535 | 80 | 71 | 0.0 | 1.0 | 0.00 | 0.00 | 0.00 | 77 | 1013.7 |
| 20260905044508 | 80 | 102 | 0.0 | 1.0 | 0.00 | 0.00 | 0.00 | 76 | 1014.1 |
| 20260905043032 | 80 | 72 | 0.0 | 0.0 | 0.00 | 0.00 | 0.00 | 75 | 1013.6 |
| 20260905043004 | 81 | 102 | 0.0 | 0.0 | 0.00 | 0.00 | 0.00 | 74 | 1014.1 |
| 20260905041532 | 81 | 72 | 0.0 | 0.0 | 0.00 | 0.00 | 0.00 | 71 | 1013.5 |
| 20260905041504 | 81 | 102 | 0.0 | 0.0 | 0.00 | 0.00 | 0.00 | 70 | 1014.0 |
| 20260905040035 | 81 | 72 | 0.0 | 0.0 | 0.00 | 0.00 | 0.00 | 70 | 1013.7 |
| 20260905040024 | 81 | 102 | 0.0 | 0.0 | 0.00 | 0.00 | 0.00 | 70 | 1014.2 |
| 20260905034530 | 82 | 72 | 0.0 | 0.0 | 0.00 | 0.00 | 0.00 | 69 | 1013.6 |
| 20260905034518 | 82 | 102 | 0.0 | 0.0 | 0.00 | 0.00 | 0.00 | 68 | 1014.1 |
| 20260905033033 | 82 | 72 | 0.0 | 0.0 | 0.00 | 0.00 | 0.00 | 68 | 1013.7 |
| 20260905033017 | 82 | 102 | 0.0 | 0.0 | 0.00 | 0.00 | 0.00 | 67 | 1014.2 |
| 20260905031530 | 83 | 72 | 0.0 | 0.0 | 0.00 | 0.00 | 0.00 | 67 | 1013.7 |
| 20260905031511 | 83 | 102 | 0.0 | 0.0 | 0.00 | 0.00 | 0.00 | 66 | 1014.1 |
| 20260905030037 | 83 | 72 | 0.0 | 0.0 | 0.00 | 0.00 | 0.00 | 65 | 1013.6 |
| 20260905030012 | 84 | 102 | 0.0 | 0.0 | 0.00 | 0.00 | 0.00 | 65 | 1013.9 |
| 20260905024529 | 84 | 72 | 0.0 | 0.0 | 0.00 | 0.00 | 0.00 | 64 | 1013.4 |
| 20260905024503 | 84 | 102 | 0.0 | 0.0 | 0.00 | 0.00 | 0.00 | 64 | 1013.8 |
| 20260905023032 | 84 | 72 | 0.0 | 0.0 | 0.00 | 0.00 | 0.00 | 64 | 1013.2 |
| 20260905023027 | 84 | 102 | 0.0 | 0.0 | 0.00 | 0.00 | 0.00 | 63 | 1013.7 |
| 20260905021529 | 85 | 72 | 0.0 | 0.0 | 0.00 | 0.00 | 0.00 | 63 | 1013.3 |
| 20260905021524 | 85 | 102 | 0.0 | 0.0 | 0.00 | 0.00 | 0.00 | 62 | 1013.6 |
| 20260905020030 | 86 | 72 | 0.0 | 0.0 | 0.00 | 0.00 | 0.00 | 63 | 1013.2 |
| 20260905020016 | 86 | 102 | 0.0 | 0.0 | 0.00 | 0.00 | 0.00 | 62 | 1013.6 |
| 20260905014526 | 86 | 72 | 0.0 | 0.0 | 0.00 | 0.00 | 0.00 | 60 | 1013.0 |
| 20260905014514 | 86 | 102 | 0.0 | 0.0 | 0.00 | 0.00 | 0.00 | 60 | 1013.5 |
| 20260905013030 | 87 | 72 | 0.0 | 0.0 | 0.00 | 0.00 | 0.00 | 62 | 1013.0 |
| 20260905013014 | 87 | 102 | 0.0 | 0.0 | 0.00 | 0.00 | 0.00 | 61 | 1013.4 |
| 20260905011525 | 87 | 72 | 0.0 | 0.0 | 0.00 | 0.00 | 0.00 | 63 | 1012.7 |
| 20260905011508 | 87 | 102 | 0.0 | 0.0 | 0.00 | 0.00 | 0.00 | 62 | 1013.2 |
| 20260905010036 | 88 | 102 | 0.0 | 0.0 | 0.00 | 0.00 | 0.00 | 60 | 1013.1 |
| 20260905010025 | 88 | 72 | 0.0 | 0.0 | 0.00 | 0.00 | 0.00 | 60 | 1012.7 |
| 20260905004531 | 89 | 71 | 0.0 | 0.0 | 0.00 | 0.00 | 0.00 | 58 | 1012.6 |
| 20260905004527 | 90 | 101 | 0.0 | 0.0 | 0.00 | 0.00 | 0.00 | 57 | 1013.1 |
| 20260905003029 | 92 | 70 | 0.0 | 0.0 | 0.00 | 0.00 | 0.00 | 54 | 1012.5 |
| 20260905003022 | 92 | 101 | 0.0 | 0.0 | 0.00 | 0.00 | 0.00 | 53 | 1012.9 |
| 20260905001623 | 93 | 71 | 0.0 | 0.0 | 0.00 | 0.00 | 0.00 | 50 | 1012.5 |
| 20260905001514 | 93 | 82 | 0.0 | 0.0 | 0.00 | 0.00 | 0.00 | 50 | 1012.9 |
| 20260905000027 | 94 | 52 | 0.0 | 1.0 | 0.00 | 0.00 | 0.00 | 49 | 1012.4 |
| 20260905000012 | 94 | 82 | 0.0 | 1.0 | 0.00 | 0.00 | 0.00 | 49 | 1012.7 |
| 20260904234543 | 94 | 51 | 0.0 | 1.0 | 0.00 | 0.00 | 0.00 | 48 | 1012.4 |
| 20260904234509 | 94 | 81 | 0.0 | 1.0 | 0.00 | 0.00 | 0.00 | 47 | 1012.7 |
| 20260904233109 | 94 | 52 | 0.0 | 1.0 | 0.00 | 0.00 | 0.00 | 47 | 1012.2 |
| 20260904233033 | 95 | 82 | 0.0 | 1.0 | 0.00 | 0.00 | 0.00 | 47 | 1012.6 |
| 20260904231628 | 94 | 22 | 0.0 | 1.0 | 0.00 | 0.00 | 0.00 | 47 | 1012.1 |
| 20260904231527 | 95 | 52 | 0.0 | 1.0 | 0.00 | 0.00 | 0.00 | 46 | 1012.5 |
| 20260904230054 | 94 | 45 | 0.0 | 2.0 | 0.00 | 0.00 | 0.00 | 48 | 1012.1 |
| 20260904230026 | 95 | 75 | 0.0 | 2.0 | 0.00 | 0.00 | 0.00 | 46 | 1012.5 |